Location: Buena Vista Beach
(41.8098°N, 81.1279°W)
Time: 17:31:45
(UTC+00:00)

Helios 1A Rocket - Pass Details

Date: 29 October 2020
Orbit: 562 x 587 km, 98.3° (Epoch: 28 November)

Event Time Altitude Azimuth Distance (km) Brightness Sun altitude
Rises 23:36:05 0° 157° (SSE) 2,793 6.3 -14.3°
Reaches altitude 10° 23:38:15 10° 154° (SSE) 1,895 5.4 -14.7°
Maximum altitude 23:42:19 63° 74° (ENE) 651 2.9 -15.5°
Drops below altitude 10° 23:46:22 10° 353° (N) 1,896 5.6 -16.2°
Sets 23:48:32 0° 351° (N) 2,795 6.5 -16.6°
